Time,TemperatureF,DewpointF,PressureIn,WindDirection,WindDirectionDegrees,WindSpeedMPH,WindSpeedGustMPH,Humidity,HourlyPrecipIn,Conditions,Clouds,dailyrainin,SoftwareType,DateUTC
2013-06-30 00:02:00,70.6,58.2,29.65,NE,45,2.7,3.4,65,0.00,,,0.00,WUHU216HW,2013-06-30 07:02:00,
2013-06-30 00:08:00,70.6,58.2,29.65,NNE,17,2.5,4.5,65,0.00,,,0.00,WUHU216HW,2013-06-30 07:08:00,
2013-06-30 00:14:00,70.4,58.1,29.65,North,357,1.8,4.5,65,0.00,,,0.00,WUHU216HW,2013-06-30 07:14:00,
2013-06-30 00:21:00,70.2,57.9,29.65,North,0,1.8,2.9,65,0.00,,,0.00,WUHU216HW,2013-06-30 07:21:00,
2013-06-30 00:27:00,70.2,57.9,29.65,North,0,2.2,3.1,65,0.00,,,0.00,WUHU216HW,2013-06-30 07:27:00,
2013-06-30 00:33:00,70.0,57.7,29.65,North,0,3.4,3.6,65,0.00,,,0.00,WUHU216HW,2013-06-30 07:33:00,
2013-06-30 00:39:00,69.8,57.5,29.65,North,5,1.0,3.6,65,0.00,,,0.00,WUHU216HW,2013-06-30 07:39:00,
2013-06-30 00:46:00,69.7,57.3,29.65,North,0,1.1,2.2,65,0.00,,,0.00,WUHU216HW,2013-06-30 07:46:00,
2013-06-30 00:52:00,69.5,57.6,29.65,North,0,2.0,2.9,66,0.00,,,0.00,WUHU216HW,2013-06-30 07:52:00,
2013-06-30 00:58:00,69.5,57.2,29.65,NNW,338,1.6,2.9,65,0.00,,,0.00,WUHU216HW,2013-06-30 07:58:00,
2013-06-30 01:04:00,69.1,57.2,29.65,North,0,3.6,4.0,66,0.00,,,0.00,WUHU216HW,2013-06-30 08:04:00,
2013-06-30 01:10:00,69.1,57.2,29.65,North,0,1.4,4.0,66,0.00,,,0.00,WUHU216HW,2013-06-30 08:10:00,
2013-06-30 01:17:00,69.1,57.2,29.65,North,0,1.1,1.8,66,0.00,,,0.00,WUHU216HW,2013-06-30 08:17:00,
2013-06-30 01:23:00,68.9,57.5,29.65,North,0,0.7,2.5,67,0.00,,,0.00,WUHU216HW,2013-06-30 08:23:00,
2013-06-30 01:29:00,68.8,57.3,29.65,North,0,0.5,2.5,67,0.00,,,0.00,WUHU216HW,2013-06-30 08:29:00,
2013-06-30 01:35:00,68.8,57.3,29.65,North,0,1.1,1.8,67,0.00,,,0.00,WUHU216HW,2013-06-30 08:35:00,
2013-06-30 01:42:00,68.4,57.0,29.65,North,0,0.0,1.8,67,0.00,,,0.00,WUHU216HW,2013-06-30 08:42:00,
2013-06-30 01:48:00,68.4,57.4,29.65,North,0,0.9,1.3,68,0.00,,,0.00,WUHU216HW,2013-06-30 08:48:00,
2013-06-30 01:54:00,68.2,58.2,29.65,NNE,18,1.4,2.2,70,0.00,,,0.00,WUHU216HW,2013-06-30 08:54:00,
2013-06-30 02:00:00,68.2,58.2,29.65,NNE,19,1.5,2.2,70,0.00,,,0.00,WUHU216HW,2013-06-30 09:00:00,
2013-06-30 02:06:00,68.0,58.0,29.65,North,0,1.8,2.5,70,0.00,,,0.00,WUHU216HW,2013-06-30 09:06:00,
2013-06-30 02:13:00,68.0,58.0,29.64,North,0,0.7,2.5,70,0.00,,,0.00,WUHU216HW,2013-06-30 09:13:00,
2013-06-30 02:19:00,68.0,58.0,29.65,North,0,0.0,0.9,70,0.00,,,0.00,WUHU216HW,2013-06-30 09:19:00,
2013-06-30 02:25:00,67.9,57.8,29.65,North,0,0.0,0.0,70,0.00,,,0.00,WUHU216HW,2013-06-30 09:25:00,
2013-06-30 02:31:00,67.7,57.6,29.65,North,0,0.0,0.7,70,0.00,,,0.00,WUHU216HW,2013-06-30 09:31:00,
2013-06-30 02:38:00,67.5,57.8,29.65,North,0,0.0,0.7,71,0.00,,,0.00,WUHU216HW,2013-06-30 09:38:00,
2013-06-30 02:44:00,67.3,57.6,29.64,North,0,0.0,0.0,71,0.00,,,0.00,WUHU216HW,2013-06-30 09:44:00,
2013-06-30 02:50:00,67.1,57.4,29.64,North,0,0.0,0.0,71,0.00,,,0.00,WUHU216HW,2013-06-30 09:50:00,
2013-06-30 02:56:00,67.1,57.4,29.64,North,0,0.0,0.0,71,0.00,,,0.00,WUHU216HW,2013-06-30 09:56:00,
2013-06-30 03:02:00,67.0,57.6,29.64,North,0,0.0,1.1,72,0.00,,,0.00,WUHU216HW,2013-06-30 10:02:00,
2013-06-30 03:09:00,66.8,57.4,29.64,North,0,0.0,0.0,72,0.00,,,0.00,WUHU216HW,2013-06-30 10:09:00,
2013-06-30 03:15:00,66.6,57.2,29.64,North,0,0.2,0.2,72,0.00,,,0.00,WUHU216HW,2013-06-30 10:15:00,
2013-06-30 03:21:00,66.4,57.1,29.64,North,0,0.0,0.2,72,0.00,,,0.00,WUHU216HW,2013-06-30 10:21:00,
2013-06-30 03:27:00,66.2,56.9,29.63,North,0,0.0,0.0,72,0.00,,,0.00,WUHU216HW,2013-06-30 10:27:00,
2013-06-30 03:34:00,66.2,57.3,29.63,North,0,0.0,0.2,73,0.00,,,0.00,WUHU216HW,2013-06-30 10:34:00,
2013-06-30 03:40:00,66.1,57.2,29.63,North,0,0.0,0.0,73,0.00,,,0.00,WUHU216HW,2013-06-30 10:40:00,
2013-06-30 03:46:00,65.9,57.0,29.63,North,0,0.0,0.0,73,0.00,,,0.00,WUHU216HW,2013-06-30 10:46:00,
2013-06-30 03:52:00,65.9,57.0,29.63,North,0,0.4,0.4,73,0.00,,,0.00,WUHU216HW,2013-06-30 10:52:00,
2013-06-30 03:58:00,65.7,56.8,29.63,North,0,0.0,0.4,73,0.00,,,0.00,WUHU216HW,2013-06-30 10:58:00,
2013-06-30 04:05:00,65.7,56.8,29.63,North,0,0.0,0.0,73,0.00,,,0.00,WUHU216HW,2013-06-30 11:05:00,
2013-06-30 04:11:00,65.5,57.0,29.63,North,0,0.0,0.0,74,0.00,,,0.00,WUHU216HW,2013-06-30 11:11:00,
2013-06-30 04:17:00,65.3,56.8,29.63,North,0,0.0,0.0,74,0.00,,,0.00,WUHU216HW,2013-06-30 11:17:00,
2013-06-30 04:23:00,65.2,56.7,29.63,North,0,0.0,0.0,74,0.00,,,0.00,WUHU216HW,2013-06-30 11:23:00,
2013-06-30 04:29:00,65.2,56.7,29.63,North,0,0.0,0.0,74,0.00,,,0.00,WUHU216HW,2013-06-30 11:29:00,
2013-06-30 04:36:00,65.2,56.7,29.63,North,0,0.0,0.0,74,0.00,,,0.00,WUHU216HW,2013-06-30 11:36:00,
2013-06-30 04:42:00,65.0,56.5,29.63,North,0,0.0,0.0,74,0.00,,,0.00,WUHU216HW,2013-06-30 11:42:00,
2013-06-30 04:48:00,64.8,56.4,29.63,North,0,0.0,0.0,74,0.00,,,0.00,WUHU216HW,2013-06-30 11:48:00,
2013-06-30 04:54:00,64.8,56.4,29.63,North,0,0.2,0.2,74,0.00,,,0.00,WUHU216HW,2013-06-30 11:54:00,
2013-06-30 05:01:00,64.6,56.2,29.63,North,0,0.0,0.2,74,0.00,,,0.00,WUHU216HW,2013-06-30 12:01:00,
2013-06-30 05:07:00,64.4,56.3,29.63,North,0,0.0,0.0,75,0.00,,,0.00,WUHU216HW,2013-06-30 12:07:00,
2013-06-30 05:13:00,64.4,56.3,29.63,North,0,0.0,0.0,75,0.00,,,0.00,WUHU216HW,2013-06-30 12:13:00,
2013-06-30 05:19:00,64.3,56.2,29.63,North,0,0.0,0.0,75,0.00,,,0.00,WUHU216HW,2013-06-30 12:19:00,
2013-06-30 05:25:00,64.1,56.0,29.63,North,0,0.0,0.0,75,0.00,,,0.00,WUHU216HW,2013-06-30 12:25:00,
2013-06-30 05:32:00,64.1,56.3,29.63,North,0,0.0,0.0,76,0.00,,,0.00,WUHU216HW,2013-06-30 12:32:00,
2013-06-30 05:38:00,64.1,56.3,29.63,North,0,0.0,0.0,76,0.00,,,0.00,WUHU216HW,2013-06-30 12:38:00,
2013-06-30 05:44:00,64.1,56.3,29.63,North,0,0.0,0.0,76,0.00,,,0.00,WUHU216HW,2013-06-30 12:44:00,
2013-06-30 05:50:00,63.9,56.2,29.63,North,0,0.0,0.0,76,0.00,,,0.00,WUHU216HW,2013-06-30 12:50:00,
2013-06-30 05:57:00,64.1,56.7,29.63,North,0,0.0,0.0,77,0.00,,,0.00,WUHU216HW,2013-06-30 12:57:00,
2013-06-30 06:03:00,64.1,56.3,29.63,North,0,0.0,0.0,76,0.00,,,0.00,WUHU216HW,2013-06-30 13:03:00,
2013-06-30 06:09:00,64.3,56.5,29.63,North,0,0.0,0.0,76,0.00,,,0.00,WUHU216HW,2013-06-30 13:09:00,
2013-06-30 06:15:00,64.3,56.9,29.63,North,0,1.0,1.8,77,0.00,,,0.00,WUHU216HW,2013-06-30 13:15:00,
2013-06-30 06:21:00,64.3,56.9,29.63,North,0,0.7,1.8,77,0.00,,,0.00,WUHU216HW,2013-06-30 13:21:00,
2013-06-30 06:28:00,64.6,57.3,29.63,North,353,0.5,1.1,77,0.00,,,0.00,WUHU216HW,2013-06-30 13:28:00,
2013-06-30 06:34:00,64.8,57.8,29.63,North,0,2.3,2.5,78,0.00,,,0.00,WUHU216HW,2013-06-30 13:34:00,
2013-06-30 06:40:00,65.2,58.2,29.63,North,359,1.4,3.6,78,0.00,,,0.00,WUHU216HW,2013-06-30 13:40:00,
2013-06-30 06:46:00,65.3,58.7,29.63,North,0,2.8,3.6,79,0.00,,,0.00,WUHU216HW,2013-06-30 13:46:00,
2013-06-30 06:53:00,65.5,58.9,29.63,NNE,23,2.5,3.6,79,0.00,,,0.00,WUHU216HW,2013-06-30 13:53:00,
2013-06-30 06:59:00,65.9,58.9,29.63,NNE,23,2.5,3.1,78,0.00,,,0.00,WUHU216HW,2013-06-30 13:59:00,
2013-06-30 07:05:00,66.1,59.1,29.63,NNE,23,2.0,3.4,78,0.00,,,0.00,WUHU216HW,2013-06-30 14:05:00,
2013-06-30 07:11:00,66.2,58.8,29.63,North,0,1.3,3.4,77,0.00,,,0.00,WUHU216HW,2013-06-30 14:11:00,
2013-06-30 07:17:00,66.4,59.0,29.63,NNE,20,0.9,2.9,77,0.00,,,0.00,WUHU216HW,2013-06-30 14:17:00,
2013-06-30 07:24:00,67.0,59.1,29.63,East,90,3.8,3.8,76,0.00,,,0.00,WUHU216HW,2013-06-30 14:24:00,
2013-06-30 07:30:00,67.1,59.3,29.63,North,0,1.8,3.8,76,0.00,,,0.00,WUHU216HW,2013-06-30 14:30:00,
2013-06-30 07:36:00,67.5,59.7,29.63,North,0,2.0,3.1,76,0.00,,,0.00,WUHU216HW,2013-06-30 14:36:00,
2013-06-30 07:42:00,67.9,59.7,29.63,North,11,1.8,2.9,75,0.00,,,0.00,WUHU216HW,2013-06-30 14:42:00,
2013-06-30 07:49:00,68.2,60.0,29.63,NNE,23,2.7,2.7,75,0.00,,,0.00,WUHU216HW,2013-06-30 14:49:00,
2013-06-30 07:55:00,68.6,59.9,29.63,North,0,1.6,2.7,74,0.00,,,0.00,WUHU216HW,2013-06-30 14:55:00,
2013-06-30 08:01:00,68.9,60.3,29.63,North,0,1.8,2.5,74,0.00,,,0.00,WUHU216HW,2013-06-30 15:01:00,
2013-06-30 08:07:00,69.3,60.6,29.63,North,0,2.0,4.0,74,0.00,,,0.00,WUHU216HW,2013-06-30 15:07:00,
2013-06-30 08:13:00,69.5,60.8,29.63,North,6,2.5,3.4,74,0.00,,,0.00,WUHU216HW,2013-06-30 15:13:00,
2013-06-30 08:18:00,69.8,61.1,29.63,NNW,338,1.8,3.4,74,0.00,,,0.00,WUHU216HW,2013-06-30 15:18:00,
2013-06-30 09:00:00,74.5,62.8,29.63,North,0,2.0,2.0,67,0.00,,,0.00,WUHU216HW,2013-06-30 16:00:00,
2013-06-30 10:00:00,79.2,64.3,29.61,NNE,23,1.1,1.1,60,0.00,,,0.00,WUHU216HW,2013-06-30 17:00:00,
2013-06-30 10:05:00,79.2,64.3,29.61,NNE,23,1.1,1.1,60,0.00,,,0.00,WUHU216HW,2013-06-30 17:05:00,
2013-06-30 11:00:00,83.5,64.5,29.60,North,0,0.7,0.7,53,0.00,,,0.00,WUHU216HW,2013-06-30 18:00:00,
2013-06-30 11:05:00,83.5,64.5,29.60,North,0,0.7,0.7,53,0.00,,,0.00,WUHU216HW,2013-06-30 18:05:00,
2013-06-30 12:00:00,87.1,66.3,29.58,West,270,1.6,1.6,50,0.00,,,0.00,WUHU216HW,2013-06-30 19:00:00,
2013-06-30 12:05:00,87.1,66.3,29.58,West,270,1.6,1.6,50,0.00,,,0.00,WUHU216HW,2013-06-30 19:05:00,
2013-06-30 13:00:00,89.8,66.2,29.57,WNW,293,3.4,3.4,46,0.00,,,0.00,WUHU216HW,2013-06-30 20:00:00,
2013-06-30 13:05:00,89.8,66.2,29.57,WNW,293,3.4,3.4,46,0.00,,,0.00,WUHU216HW,2013-06-30 20:05:00,
2013-06-30 14:00:00,92.2,67.0,29.55,NW,315,1.6,1.6,44,0.00,,,0.00,WUHU216HW,2013-06-30 21:00:00,
2013-06-30 14:05:00,92.2,67.0,29.55,NW,315,1.6,1.6,44,0.00,,,0.00,WUHU216HW,2013-06-30 21:05:00,
2013-06-30 15:00:00,91.8,66.0,29.54,WNW,293,2.0,2.0,43,0.00,,,0.00,WUHU216HW,2013-06-30 22:00:00,
2013-06-30 15:05:00,91.8,66.0,29.54,WNW,293,2.0,2.0,43,0.00,,,0.00,WUHU216HW,2013-06-30 22:05:00,
2013-06-30 16:00:00,94.7,65.0,29.52,WSW,248,1.1,1.1,38,0.00,,,0.00,WUHU216HW,2013-06-30 23:00:00,
2013-06-30 16:05:00,94.7,65.0,29.52,WSW,248,1.1,1.1,38,0.00,,,0.00,WUHU216HW,2013-06-30 23:05:00,
2013-06-30 17:00:00,96.3,63.2,29.52,NNW,338,1.1,1.1,34,0.00,,,0.00,WUHU216HW,2013-07-01 00:00:00,
2013-06-30 17:05:00,96.3,63.2,29.52,NNW,338,1.1,1.1,34,0.00,,,0.00,WUHU216HW,2013-07-01 00:05:00,
2013-06-30 18:00:00,101.2,63.0,29.51,SW,225,0.2,0.2,29,0.00,,,0.00,WUHU216HW,2013-07-01 01:00:00,
2013-06-30 18:05:00,101.0,64.0,29.51,WNW,293,0.4,1.8,30,0.00,,,0.00,WUHU216HW,2013-07-01 01:05:00,
2013-06-30 18:10:00,100.1,63.2,29.50,NW,315,1.1,1.8,30,0.00,,,0.00,WUHU216HW,2013-07-01 01:10:00,
2013-06-30 18:15:00,97.7,61.9,29.50,WSW,256,1.9,2.9,31,0.00,,,0.00,WUHU216HW,2013-07-01 01:15:00,
2013-06-30 18:20:00,96.5,62.5,29.50,SW,225,0.8,2.9,33,0.00,,,0.00,WUHU216HW,2013-07-01 01:20:00,
2013-06-30 18:25:00,95.9,62.0,29.50,West,281,1.0,1.3,33,0.00,,,0.00,WUHU216HW,2013-07-01 01:25:00,
2013-06-30 18:30:00,95.4,62.4,29.50,NW,321,1.2,2.2,34,0.00,,,0.00,WUHU216HW,2013-07-01 01:30:00,
2013-06-30 18:35:00,94.7,62.6,29.50,WNW,293,1.3,2.2,35,0.00,,,0.00,WUHU216HW,2013-07-01 01:35:00,
2013-06-30 18:40:00,94.1,61.3,29.50,NW,315,1.1,1.8,34,0.00,,,0.00,WUHU216HW,2013-07-01 01:40:00,
2013-06-30 18:45:00,94.0,61.9,29.50,NW,315,0.0,1.3,35,0.00,,,0.00,WUHU216HW,2013-07-01 01:45:00,
2013-06-30 18:50:00,93.1,61.9,29.50,West,270,1.8,2.9,36,0.00,,,0.00,WUHU216HW,2013-07-01 01:50:00,
2013-06-30 18:55:00,92.9,61.8,29.50,NW,315,0.0,2.9,36,0.00,,,0.00,WUHU216HW,2013-07-01 01:55:00,
2013-06-30 19:00:00,92.3,62.9,29.50,NW,315,0.5,1.1,38,0.00,,,0.00,WUHU216HW,2013-07-01 02:00:00,
2013-06-30 19:05:00,92.0,62.7,29.50,NW,315,0.0,1.8,38,0.00,,,0.00,WUHU216HW,2013-07-01 02:05:00,
2013-06-30 19:10:00,91.6,63.1,29.50,NNW,345,0.4,1.8,39,0.00,,,0.00,WUHU216HW,2013-07-01 02:10:00,
2013-06-30 19:15:00,91.1,62.7,29.50,North,0,0.0,0.4,39,0.00,,,0.00,WUHU216HW,2013-07-01 02:15:00,
2013-06-30 19:20:00,90.7,63.1,29.50,NW,315,1.1,1.6,40,0.00,,,0.00,WUHU216HW,2013-07-01 02:20:00,
2013-06-30 19:25:00,90.2,63.3,29.50,North,0,2.5,3.1,41,0.00,,,0.00,WUHU216HW,2013-07-01 02:25:00,
2013-06-30 19:30:00,89.6,64.1,29.50,North,0,3.4,4.0,43,0.00,,,0.00,WUHU216HW,2013-07-01 02:30:00,
2013-06-30 19:35:00,89.3,64.4,29.49,North,0,2.9,4.0,44,0.00,,,0.00,WUHU216HW,2013-07-01 02:35:00,
2013-06-30 19:40:00,88.7,64.6,29.49,NNE,20,2.3,3.4,45,0.00,,,0.00,WUHU216HW,2013-07-01 02:40:00,
2013-06-30 19:45:00,88.4,64.9,29.50,North,10,2.0,2.9,46,0.00,,,0.00,WUHU216HW,2013-07-01 02:45:00,
2013-06-30 19:50:00,88.2,64.7,29.50,NNE,13,0.8,2.7,46,0.00,,,0.00,WUHU216HW,2013-07-01 02:50:00,
2013-06-30 19:55:00,88.0,65.3,29.50,North,0,0.0,1.3,47,0.00,,,0.00,WUHU216HW,2013-07-01 02:55:00,
2013-06-30 20:00:00,87.8,65.1,29.50,North,0,1.6,2.0,47,0.00,,,0.00,WUHU216HW,2013-07-01 03:00:00,
2013-06-30 20:05:00,87.5,64.7,29.49,North,0,0.0,2.0,47,0.00,,,0.00,WUHU216HW,2013-07-01 03:05:00,
2013-06-30 20:10:00,87.1,65.1,29.50,NNW,336,0.7,1.6,48,0.00,,,0.00,WUHU216HW,2013-07-01 03:10:00,
2013-06-30 20:15:00,86.8,65.3,29.50,North,0,2.5,2.5,49,0.00,,,0.00,WUHU216HW,2013-07-01 03:15:00,
2013-06-30 20:20:00,86.6,64.5,29.50,NW,315,0.0,2.5,48,0.00,,,0.00,WUHU216HW,2013-07-01 03:20:00,
2013-06-30 20:25:00,86.2,64.9,29.50,NNW,338,0.0,2.5,49,0.00,,,0.00,WUHU216HW,2013-07-01 03:25:00,
2013-06-30 20:30:00,86.0,64.7,29.50,NNW,338,0.0,1.3,49,0.00,,,0.00,WUHU216HW,2013-07-01 03:30:00,
2013-06-30 20:35:00,85.7,64.4,29.50,North,0,2.5,2.5,49,0.00,,,0.00,WUHU216HW,2013-07-01 03:35:00,
2013-06-30 20:40:00,85.1,63.9,29.50,North,0,0.0,2.5,49,0.00,,,0.00,WUHU216HW,2013-07-01 03:40:00,
2013-06-30 20:45:00,84.6,64.1,29.50,West,270,1.1,1.6,50,0.00,,,0.00,WUHU216HW,2013-07-01 03:45:00,
2013-06-30 20:50:00,84.2,63.1,29.50,NNW,338,1.1,1.8,49,0.00,,,0.00,WUHU216HW,2013-07-01 03:50:00,
2013-06-30 20:55:00,83.7,63.2,29.50,NNW,338,0.0,1.8,50,0.00,,,0.00,WUHU216HW,2013-07-01 03:55:00,
2013-06-30 21:00:00,83.3,62.8,29.50,North,0,0.9,1.1,50,0.00,,,0.00,WUHU216HW,2013-07-01 04:00:00,
2013-06-30 21:01:00,83.3,62.8,29.50,North,0,0.9,1.1,50,0.00,,,0.00,WUHU216HW,2013-07-01 04:01:00,
2013-06-30 21:06:00,83.2,62.6,29.50,North,0,0.0,0.9,50,0.00,,,0.00,WUHU216HW,2013-07-01 04:06:00,
2013-06-30 21:11:00,82.8,62.8,29.50,WNW,293,0.0,0.2,51,0.00,,,0.00,WUHU216HW,2013-07-01 04:11:00,
2013-06-30 21:16:00,82.4,62.5,29.50,North,0,1.1,1.3,51,0.00,,,0.00,WUHU216HW,2013-07-01 04:16:00,
2013-06-30 21:19:00,82.3,62.8,29.50,North,0,1.3,1.3,52,0.00,,,0.00,WUHU216HW,2013-07-01 04:19:00,
2013-06-30 21:21:00,82.3,62.8,29.50,North,0,1.3,2.5,52,0.00,,,0.00,WUHU216HW,2013-07-01 04:21:00,
2013-06-30 21:26:00,82.3,62.8,29.50,North,0,1.3,2.5,52,0.00,,,0.00,WUHU216HW,2013-07-01 04:26:00,
2013-06-30 22:00:00,80.3,63.6,29.52,NNW,338,1.1,1.1,57,0.00,,,0.00,WUHU216HW,2013-07-01 05:00:00,
2013-06-30 22:05:00,80.3,63.6,29.52,NNW,338,1.1,1.1,57,0.00,,,0.00,WUHU216HW,2013-07-01 05:05:00,
2013-06-30 23:00:00,77.8,63.3,29.54,North,0,0.7,0.7,61,0.00,,,0.00,WUHU216HW,2013-07-01 06:00:00,
2013-06-30 23:05:00,77.8,64.2,29.54,North,8,2.0,3.1,63,0.00,,,0.00,WUHU216HW,2013-07-01 06:05:00,
2013-06-30 23:10:00,77.6,64.0,29.54,North,1,1.3,3.1,63,0.00,,,0.00,WUHU216HW,2013-07-01 06:10:00,
2013-06-30 23:15:00,77.4,64.3,29.54,NNE,23,1.8,2.5,64,0.00,,,0.00,WUHU216HW,2013-07-01 06:15:00,
2013-06-30 23:20:00,77.0,64.8,29.55,North,0,3.4,4.0,66,0.00,,,0.00,WUHU216HW,2013-07-01 06:20:00,
2013-06-30 23:25:00,76.9,64.6,29.55,North,3,2.8,4.0,66,0.00,,,0.00,WUHU216HW,2013-07-01 06:25:00,
2013-06-30 23:30:00,76.7,64.4,29.55,North,9,2.2,3.6,66,0.00,,,0.00,WUHU216HW,2013-07-01 06:30:00,
2013-06-30 23:35:00,76.5,64.7,29.55,NNE,18,1.3,4.5,67,0.00,,,0.00,WUHU216HW,2013-07-01 06:35:00,
2013-06-30 23:40:00,76.3,64.1,29.55,North,0,2.9,4.5,66,0.00,,,0.00,WUHU216HW,2013-07-01 06:40:00,
2013-06-30 23:45:00,76.1,63.9,29.54,NNE,19,2.0,2.9,66,0.00,,,0.00,WUHU216HW,2013-07-01 06:45:00,
2013-06-30 23:50:00,76.0,63.7,29.54,North,0,2.0,2.9,66,0.00,,,0.00,WUHU216HW,2013-07-01 06:50:00,
2013-06-30 23:55:00,76.0,63.4,29.54,NNW,338,2.5,2.5,65,0.00,,,0.00,WUHU216HW,2013-07-01 06:55:00,